Home > Weather > Oshawa > Past weeks

Flag for Canada Weather for the Past 2 Weeks in Oshawa, Ontario, Canada

Now
3 °F

Snow flurries. Low level haze.


Feels Like: -18 °F
Forecast: -13 / 4 °F
Wind: 21 mph from North

Location: Toronto Buttonville

Current Time: Feb 13, 2016 at 12:33:43 AM

Latest Report: Feb 13, 2016 at 12:00 AM


Visibility: 14 mi

Pressure: 30.04 "Hg

Humidity: 66%

Dew point: -6 °F

Location of OshawaLocation

Historic Weather in Oshawa — Graph

°F

Oshawa Temperature Yesterday

Maximum temperature yesterday: 23 °F (at 2:00 PM)
Minimum temperature yesterday: 9 °F (at 12:00 AM)
Average temperature yesterday: 16 °F

High & Low Weather Summary for the Past Weeks

 TemperatureHumidityPressure
High59 °F (Feb 3, 3:00 PM)100% (Jan 31, 6:00 PM)30.36 "Hg (Jan 31, 6:00 PM)
Low0 °F (Feb 11, 7:00 AM)34% (Feb 3, 4:00 PM)29.44 "Hg (Feb 1, 12:00 AM)
Average29 °F74%29.89 "Hg
* Reported Jan 28 11:00 PM — Feb 12 11:00 PM, Oshawa, Weather by CustomWeather, © 2016

Note: Actual official high and low records may vary slightly from our data, if they occured in-between our weather recording intervals... More about our weather records

Advertising

Oshawa Weather History for the Previous 24 Hours

 ConditionsComfort  
Time TempWeatherWind HumidityBarometerVisibility
11:00 PM
Fri, Feb 12
9 °FSnow flurries. Passing clouds.20 mph78%29.99 "Hg2 mi
10:00 PM12 °FSnow flurries. Passing clouds.9 mph79%29.95 "Hg13 mi
9:00 PM14 °FSnow flurries. Partly cloudy.17 mph79%29.92 "Hg8 mi
8:00 PM16 °FSnow flurries. Partly cloudy.12 mph73%29.90 "Hg14 mi
7:00 PM16 °FSnow flurries. Ice fog.13 mph79%29.89 "Hg1 mi
6:00 PM19 °FOvercast.10 mph73%29.86 "Hg15 mi
5:00 PM19 °FOvercast.9 mph79%29.86 "Hg15 mi
4:00 PM23 °FPartly sunny.15 mph50%29.84 "Hg15 mi
3:45 PM23 °FPartly sunny.10 mph58%29.84 "Hg15 mi
3:00 PM21 °FSnow flurries. Overcast.16 mph63%29.84 "Hg5 mi
2:00 PM23 °FOvercast.14 mph58%29.86 "Hg10 mi
1:00 PM21 °FCold.14 mph58%29.89 "HgN/A
12:00 PM19 °FSnow flurries. Overcast.14 mph73%29.93 "Hg3 mi
11:00 AM19 °FOvercast.10 mph63%29.96 "Hg12 mi
10:00 AM18 °FOvercast.10 mph62%29.98 "Hg15 mi
9:00 AM16 °FPartly sunny.10 mph67%30.00 "Hg15 mi
8:00 AM16 °FOvercast.8 mph67%30.02 "Hg15 mi
7:00 AM14 °FPassing clouds.7 mph67%30.04 "Hg15 mi
6:00 AM12 °FPassing clouds.12 mph73%30.05 "Hg15 mi
5:00 AM12 °FPassing clouds.12 mph67%30.07 "Hg15 mi
4:00 AM12 °FPassing clouds.13 mph67%30.09 "Hg15 mi
3:00 AM12 °FPassing clouds.15 mph67%30.12 "Hg15 mi
2:00 AM12 °FPassing clouds.12 mph67%30.14 "Hg15 mi
1:00 AM10 °FPassing clouds.8 mph79%30.16 "Hg15 mi
12:00 AM9 °FPassing clouds.3 mph78%30.18 "Hg15 mi
Weather by CustomWeather, © 2016

See weather overviewHow to use our weather pages